This is the latest recevied weather packets stored in our database for station/object KE0TNI-13. If no packets are shown the sender has not sent any weather packets the latest 10 day(s).
| Time | Temp. | Humidity | Pressure | Rain* | Wind** | Luminosity | Snow |
|---|---|---|---|---|---|---|---|
| 1777039130 | 1.67° C | 30% | 1013.9 hPa | 0 mm | - | 26 W/m² | - |
| 1777038829 | 1.11° C | 30% | 1013.9 hPa | 0 mm | - | 21 W/m² | - |
| 1777038526 | 1.11° C | 31% | 1014.1 hPa | 0 mm | - | 21 W/m² | - |
| 1777038225 | 0.56° C | 34% | 1014.1 hPa | 0 mm | - | 20 W/m² | - |
| 1777037921 | 0° C | 35% | 1014 hPa | 0 mm | - | 20 W/m² | - |
| 1777037618 | -1.11° C | 36% | 1014.1 hPa | 0 mm | - | 19 W/m² | - |
| 1777037314 | -1.67° C | 39% | 1014.3 hPa | 0 mm | - | 19 W/m² | - |
| 1777037011 | -2.22° C | 40% | 1014.1 hPa | 0 mm | - | 18 W/m² | - |
| 1777036708 | -2.22° C | 41% | 1014.3 hPa | 0 mm | - | 18 W/m² | - |
| 1777036408 | -2.22° C | 40% | 1014.1 hPa | 0 mm | - | 17 W/m² | - |
| 1777036104 | -2.78° C | 41% | 1014.3 hPa | 0 mm | - | 16 W/m² | - |
| 1777035799 | -2.78° C | 42% | 1014.4 hPa | 0 mm | - | 16 W/m² | - |
| 1777035497 | -2.78° C | 40% | 1014 hPa | 0 mm | - | 15 W/m² | - |
| 1777035195 | -3.33° C | 44% | 1014.1 hPa | 0 mm | - | 14 W/m² | - |
| 1777034892 | -3.33° C | 42% | 1014.3 hPa | 0 mm | - | 13 W/m² | - |
| 1777034589 | -3.33° C | 44% | 1014.3 hPa | 0 mm | - | 12 W/m² | - |
| 1777034286 | -3.33° C | 44% | 1014.1 hPa | 0 mm | - | 10 W/m² | - |
| 1777033981 | -3.33° C | 45% | 1014 hPa | 0 mm | - | 9 W/m² | - |
| 1777033678 | -3.33° C | 44% | 1014 hPa | 0 mm | - | 7 W/m² | - |
| 1777033375 | -3.33° C | 44% | 1014.1 hPa | 0 mm | - | 5 W/m² | - |
| 1777033072 | -3.33° C | 43% | 1014.3 hPa | 0 mm | - | 4 W/m² | - |
| 1777032767 | -3.33° C | 44% | 1014.1 hPa | 0 mm | - | 2 W/m² | - |
| 1777032465 | -3.33° C | 43% | 1014.1 hPa | 0 mm | - | 1 W/m² | - |
| 1777032164 | -3.33° C | 44% | 1013.9 hPa | 0 mm | - | 1 W/m² | - |
| 1777031860 | -3.33° C | 44% | 1014.4 hPa | 0 mm | - | 0 W/m² | - |
* Rain latest hour (hover to see other rain measurements)
** Current wind speed in m/s (hover to see current wind gust speed)